Regional Weather Roundup
Issued by NWS

Home | Current Version | Previous Version | Graphics & Text | Print | Product List | Glossary On
Versions: 1 2 3 4 5 6 7 8 9 10 11 12 13 14 15 16 17 18 19 20 21 22 23 24 25 26 27
000
ASUS45 KSLC 222110
RWRUT

UTAH REGIONAL WEATHER ROUNDUP
NATIONAL WEATHER SERVICE SALT LAKE CITY UT
300 PM MDT WED MAR 22 2017

UTZ001>011-023>025-222200-

NORTHERN UTAH

CITY           SKY/WX    TMP DP  RH WIND       PRES   REMARKS
BRIGHAM CITY     N/A     60  43  54 N6        29.84F
DUGWAY         LGT RAIN  62  36  38 NW15G22   29.79F
HILL AFB       PTSUNNY   56  44  65 E6        29.83F
LOGAN          MOSUNNY   59  47  64 N15       29.84F
OGDEN          LGT RAIN  57  45  64 N7        29.82F
SALT LAKE CITY CLOUDY    57  46  66 N12       29.82F
WENDOVER       CLOUDY    59  37  44 SE3       29.82F
HEBER CITY     PTSUNNY   63  32  31 SW9       29.83F

$$

UTZ011>015-024>027-222200-

CENTRAL/NORTHEAST UTAH

CITY           SKY/WX    TMP DP  RH WIND       PRES   REMARKS
PROVO AIRPORT  CLOUDY    68  35  29 S9        29.80F
MOAB/CANYONLAN CLOUDY    74  24  15 S17G25    29.82F
DELTA          CLOUDY    68  27  21 S24G33    29.81F
PRICE          CLOUDY    65  27  23 S20G32    29.87F
RICHFIELD      SUNNY     66  28  24 S22       29.84F
ROOSEVELT      MOSUNNY   66  30  26 E6        29.86F
VERNAL         CLOUDY    68  28  22 S10G18    29.85F

$$

UTZ013>016-019>022-027-222200-

SOUTHERN UTAH

CITY           SKY/WX    TMP DP  RH WIND       PRES   REMARKS
BRYCE CANYON   CLOUDY    50  31  48 S20G26    30.00F
CEDAR CITY     CLOUDY    61  35  37 SW20G26   29.88F
MILFORD        CLOUDY    64  34  32 SW24G33   29.84F
ST GEORGE      MOCLDY    73  40  30 SW22      29.82F
HANKSVILLE     PTSUNNY   72  27  18 SW14      29.86F
KANAB          CLOUDY    57  46  67 SE10      29.95F
BLANDING       CLOUDY    63  26  24 S3        30.04F

$$

REGIONAL REPORTS     COLORADO/ARIZONA

CITY           SKY/WX    TMP DP  RH WIND       PRES   REMARKS
CRAIG, CO      CLOUDY    68  19  15 S20G31    29.92F
GRAND JUNCTION CLOUDY    72  22  15 S13       29.87F
RIFLE, CO      CLOUDY    67  22  18 SW18G25   29.94F
MONTROSE, CO   CLOUDY    66  21  18 VRB3      29.95F
CORTEZ, CO     CLOUDY    68  22  17 S9        29.99F
COLORADO CITY  MOCLDY    68  36  30 SW13G22   29.93F
PAGE, AZ       PTSUNNY   72 N/A N/A SW13G20   29.85F
GRAND CANYON   CLOUDY    59  34  39 SW18G31   30.00F
KINGMAN, AZ    CLOUDY    67  28  23 SW21G29   29.92F
FLAGSTAFF, AZ  CLOUDY    54  35  48 SW17G29   30.05F

$$

REGIONAL REPORTS    NEVADA/IDAHO/WYOMING

CITY           SKY/WX    TMP DP  RH WIND       PRES   REMARKS
LAS VEGAS, NV  CLOUDY    71  27  19 SW14G24   29.82F
ELY, NY        CLOUDY    54  12  18 S26G35    29.86F
ELKO, NV       CLOUDY    50  33  52 SW5       29.87F
POCATELLO, ID  MOSUNNY   51  40  65 E8        29.90F
BURLEY, ID     CLOUDY    53  34  48 N6        29.88F
FORT BRIDGER,    N/A     60  28  29 SW22G31   29.94F
EVANSTON, WY   CLOUDY    45  37  73 N20G25    29.92F
ROCK SPRINGS,  CLOUDY    60  34  37 W13       29.91F
KEMMERER, WY     N/A     43  36  75 N9        29.94F

$$




USA.gov is the U.S. government's official web portal to all federal, state and local government web resources and services.